This is the latest recevied weather packets stored in our database for station/object KA3RQR. If no packets are shown the sender has not sent any weather packets the latest 10 day(s).
| Time | Temp. | Humidity | Pressure | Rain* | Wind** | Luminosity | Snow |
|---|---|---|---|---|---|---|---|
| 1777590027 | 15.56° C | 52% | 1010.9 hPa | 0 mm | - | 28 W/m² | - |
| 1777589723 | 15.56° C | 52% | 1010.9 hPa | 0 mm | - | 31 W/m² | - |
| 1777589421 | 15.56° C | 49% | 1010.8 hPa | 0 mm | - | 32 W/m² | - |
| 1777589117 | 16.11° C | 48% | 1010.8 hPa | 0 mm | - | 35 W/m² | - |
| 1777588813 | 16.11° C | 46% | 1010.5 hPa | 0 mm | - | 75 W/m² | - |
| 1777588509 | 16.67° C | 46% | 1010.5 hPa | 0 mm | - | 121 W/m² | - |
| 1777588204 | 16.67° C | 47% | 1010.4 hPa | 0 mm | - | 45 W/m² | - |
| 1777587900 | 17.22° C | 47% | 1010.3 hPa | 0 mm | - | 49 W/m² | - |
| 1777587595 | 17.78° C | 47% | 1010.3 hPa | 0 mm | - | 158 W/m² | - |
| 1777587291 | 17.78° C | 46% | 1010.3 hPa | 0 mm | - | 55 W/m² | - |
| 1777586987 | 17.78° C | 46% | 1010.1 hPa | 0 mm | - | 206 W/m² | - |
| 1777586682 | 17.78° C | 46% | 1010.1 hPa | 0 mm | - | 204 W/m² | - |
| 1777586378 | 17.78° C | 47% | 1010 hPa | 0 mm | - | 216 W/m² | - |
| 1777586078 | 18.33° C | 45% | 1009.6 hPa | 0 mm | - | 230 W/m² | - |
| 1777585776 | 18.33° C | 46% | 1009.7 hPa | 0 mm | - | 255 W/m² | - |
| 1777585471 | 18.89° C | 44% | 1009.7 hPa | 0 mm | - | 268 W/m² | - |
| 1777585167 | 18.89° C | 44% | 1009.7 hPa | 0 mm | - | 295 W/m² | - |
| 1777584863 | 18.89° C | 44% | 1009.4 hPa | 0 mm | - | 308 W/m² | - |
| 1777584561 | 17.78° C | 44% | 1009.3 hPa | 0 mm | - | 344 W/m² | - |
| 1777584257 | 18.89° C | 43% | 1009.5 hPa | 0 mm | - | 140 W/m² | - |
| 1777583951 | 18.33° C | 43% | 1009.3 hPa | 0 mm | - | 113 W/m² | - |
| 1777583647 | 18.89° C | 41% | 1009.2 hPa | 0 mm | - | 140 W/m² | - |
| 1777583346 | 18.33° C | 44% | 1009.1 hPa | 0 mm | - | 430 W/m² | - |
| 1777583041 | 17.78° C | 43% | 1009.1 hPa | 0 mm | - | 171 W/m² | - |
| 1777582738 | 17.78° C | 42% | 1009.2 hPa | 0 mm | - | 108 W/m² | - |
* Rain latest hour (hover to see other rain measurements)
** Current wind speed in m/s (hover to see current wind gust speed)